Location: Bassano
(45.7667°N, 11.7333°E)
Time: 23:53:56
(UTC+00:00)

ISS - Visible Passes

Search period start: 05 March 2021 00:00
Search period end: 15 March 2021 00:00
Orbit: 417 x 422 km, 51.6° (Epoch: 05 March)

Date Brightness Start Highest point End Pass type
(mag) Time Alt. Az. Time Alt. Az. Time Alt. Az.
05 Mar -2.3 03:57:03 27° NNW 03:57:44 30° N 04:00:45 10° ENE visible
06 Mar -1.3 03:11:24 22° NE 03:11:24 22° NE 03:13:05 10° ENE visible
06 Mar -3.1 04:44:22 12° NW 04:47:23 50° NNE 04:50:41 10° E visible
07 Mar -2.7 03:58:45 30° NNW 03:59:49 39° NNE 04:03:00 10° E visible
08 Mar -1.7 03:13:11 27° NE 03:13:11 27° NE 03:15:18 10° ENE visible
08 Mar -3.8 04:46:09 12° WNW 04:49:16 80° SSW 04:52:37 10° ESE visible
09 Mar -3.6 04:00:40 38° NW 04:01:46 70° NNE 04:05:07 10° ESE visible
10 Mar -2.1 03:15:16 35° ENE 03:15:16 35° ENE 03:17:30 10° E visible
10 Mar -2.8 04:48:14 12° W 04:50:56 32° SW 04:53:58 10° SSE visible
11 Mar -3.6 04:02:58 44° WSW 04:03:32 51° SW 04:06:48 10° SE visible
12 Mar -1.9 03:17:50 26° SE 03:17:50 26° SE 03:19:25 10° ESE visible
12 Mar -1.7 04:50:50 10° WSW 04:52:23 13° SW 04:54:00 10° SSW visible
13 Mar -2.0 04:05:54 19° SSW 04:05:54 19° SSW 04:07:38 10° S visible
